User: anonymous   Login
Location: Frizzleburg
(41.0764°N, 80.4548°W)
Time: 12:03:33
(UTC+00:00)
Language:

PAYLOAD B - Orbit

View from above orbital plane
View from above orbital plane
View from above satellite
View from above satellite

Ground track
Ground track

The orbit data is extracted from the following two-line orbital elements,

1 27431U 02024B   20021.02264340 -.00000086  00000-0 -22814-4 0  9998
2 27431  99.1338  16.9111 0014809 318.1786  41.8251 14.09691062909947
Epoch (UTC): 21 January 2020 00:32:36
Eccentricity: 0.0014809
inclination: 99.1338°
perigee height: 850 km
apogee height: 871 km
right ascension of ascending node: 16.9111°
argument of perigee: 318.1786°
revolutions per day: 14.09691062
mean anomaly at epoch: 41.8251°
orbit number at epoch: 90994

The dashed part of the orbit path shows where the satellite is in the earth's shadow,  

DLR